Regional Weather Roundup
Issued by NWS Midland/Odessa, TX

Skip options and go directly to product.
Home | Oldest Version | Previous Version | Current Version | All | Graphics & Text | Save Text | Print | Product List | Glossary On

Skip product version selection by date and time.   
984
ASUS44 KMAF 211002
RWRMAF
MIDLAND AREA WEATHER ROUNDUP
NATIONAL WEATHER SERVICE MIDLAND TX
500 AM CDT SUN SEP 21 2014

...IN SOUTHWEST TEXAS AND SOUTHEAST NEW MEXICO...

CITY           SKY/WX    TMP DP  RH WIND       PRES   REMARKS
ALPINE         MOCLDY    63  62  96 CALM      30.20R
ANDREWS        CLOUDY    69  69  98 SE10      30.11R
ARTESIA        NOT AVBL
BIG SPRING     CLOUDY    74  72  92 E3        30.10S
CARLSBAD       CLOUDY    71  32  23 NE5       30.09R
DRYDEN           N/A     77  72  84 E12       30.03R
FORT STOCKTON  CLOUDY    72  68  87 SE8       30.07S
GUAD PASS      PTCLDY    62  60  93 NE16        N/A
HOBBS          CLOUDY    68  68 100 E7        30.14S FOG
MARFA          CLEAR     61  59  94 CALM      30.18S
MIDLAND AIRPK  NOT AVBL
MIDLAND INTL   CLOUDY    71  70  96 E8        30.09R
ODESSA         CLOUDY    72  69  90 SE8       30.10R
PECOS          CLOUDY    72  69  89 E10       30.04R
PRESIDIO       FAIR      75  67  77 NE7       30.03S
SEMINOLE       CLOUDY    69  69  98 E7        30.14R
SNYDER         CLOUDY    70  69  96 CALM      30.10S
WINK           CLOUDY    73  70  90 SE9       30.05S
$$
...OTHER STATIONS IN TEXAS...

CITY           SKY/WX    TMP DP  RH WIND       PRES   REMARKS
ABILENE        CLEAR     72  69  90 SE5       30.07R
AMARILLO       CLEAR     65  64  97 NW7       30.18R FOG
AUSTIN         PTCLDY    71  70  96 CALM      30.00S
BROWNSVILLE    CLEAR     77  75  93 N5        29.89R
CORPUS CHRISTI LGT RAIN  78  76  93 N9        29.91S
DALLAS FTW     CLEAR     72  63  73 CALM      30.03R
DEL RIO        CLOUDY    77  72  84 E7        29.99R
EL PASO        PTCLDY    73  65  75 NE5       30.09F
HOUSTON INT    PTCLDY    74  72  93 NE3       29.98R
LUBBOCK        FOG       67  66  97 NE6       30.14R VSB 1/4
SAN ANGELO     MOCLDY    71  70  96 E3        30.05S
SAN ANTONIO    CLOUDY    77  72  84 CALM      30.01S
WACO           CLEAR     68  67  96 CALM      30.03R
WICHITA FALLS  NOT AVBL
$$
...OTHER LOCATIONS IN NEW MEXICO...

CITY           SKY/WX    TMP DP  RH WIND       PRES   REMARKS
ALAMAGORDO     PTCLDY    66  61  82 N5        30.13S
ALBUQUERQUE    PTCLDY    68  57  68 E12       30.24R
CANNON AFB     MOCLDY    66 N/A N/A SE7       30.21R
CLOVIS           N/A     66  64  94 E3        30.23R
HOLLOMAN AFB   PTCLDY    65  62  89 E3        30.11S
ROSWELL        RAIN      70  68  93 CALM      30.13S FOG
RUIDOSO        CLOUDY    59  59 100 CALM      30.33S
SANTA FE       CLEAR     60  51  72 S9        30.31R
TRUTH OR CONSE CLOUDY    66  63  90 NW9       30.17R
TUCUMCARI      PTCLDY    64  59  83 CALM      30.20R
$$

USA.gov is the U.S. government's official web portal to all federal, state and local government web resources and services.